This demonstration page uses our WeatherBlox Daily Observations layout. Learn more.

Left ArrowRight Arrow

31.31129, -92.44514

Hourly Observations for August 17, 2018

Temp ( °F °C ) Dew Point ( °F °C ) Humidity (%) Winds ( mph kmh ) Pressure ( in mb ) Visibility ( mi km ) Precip ( " mm )
12:53 am 00:53 Clear 79 26.1 74 23.3 85 85 S 3 6 30.06 1018 10 16 0.00 0.00
1:53 am 01:53 Clear 78 25.6 74 23.3 87 87 Calm 30.05 1018 10 16 0.00 0.00
2:53 am 02:53 Clear 77 25 74 23.3 90 90 S 5 7 30.04 1017 9 14 0.00 0.00
3:53 am 03:53 Clear 76 24.4 74 23.3 94 94 SE 3 6 30.05 1018 9 14 0.00 0.00
4:53 am 04:53 Clear 76 24.4 74 23.3 94 94 Calm 30.06 1018 9 14 0.00 0.00
5:53 am 05:53 Clear 76 24.4 74 23.3 94 94 SE 3 6 30.08 1019 8 13 0.00 0.00
6:53 am 06:53 Sunny with Mist and Fog 76 24.4 74 23.3 94 94 Calm 30.08 1019 6 10 0.00 0.00
7:53 am 07:53 Sunny 78 25.6 75 23.9 90 90 SSE 3 6 30.08 1019 7 11 0.00 0.00
8:53 am 08:53 Sunny 84 28.9 76 24.4 77 77 SW 5 7 30.09 1019 9 14 0.00 0.00
9:53 am 09:53 Sunny 88 31.1 72 22.2 59 59 WSW 7 11 30.09 1019 10 16 0.00 0.00
10:53 am 10:53 Sunny 90 32.2 71 21.7 54 54 SW 5 7 30.09 1019 10 16 0.00 0.00
11:53 am 11:53 Sunny 92 33.3 72 22.2 52 52 SW 5 7 30.07 1018 10 16 0.00 0.00
12:53 pm 12:53 Sunny 94 34.4 71 21.7 48 48 S 9 15 30.05 1018 10 16 0.00 0.00
1:53 pm 13:53 Partly Cloudy 96 35.6 71 21.7 44 44 S 9 15 30.03 1017 10 16 0.00 0.00
2:53 pm 14:53 Sunny 97 36.1 70 21.1 42 42 VRB 7 11 30.01 1016 10 16 0.00 0.00
3:53 pm 15:53 Sunny 96 35.6 70 21.1 43 43 SW 10 17 29.99 1016 10 16 0.00 0.00
4:53 pm 16:53 Mostly Sunny 93 33.9 71 21.7 49 49 SSW 3 6 29.99 1016 10 16 0.00 0.00
5:53 pm 17:53 Partly Cloudy 95 35 72 22.2 47 47 S 8 13 29.99 1016 10 16 0.00 0.00
6:53 pm 18:53 Sunny 90 32.2 75 23.9 62 62 S 10 17 29.98 1015 10 16 0.00 0.00
7:53 pm 19:53 Clear 86 30 75 23.9 70 70 S 10 17 30.01 1016 10 16 0.00 0.00
8:53 pm 20:53 Clear 83 28.3 75 23.9 77 77 SE 7 11 30.03 1017 10 16 0.00 0.00
9:00 pm 21:00 Mostly Clear with Nearby Thunderstorms 83 28.3 75 23.9 77 77 SE 7 11 30.03 1017 10 16 0.00 0.00
9:15 pm 21:15 Mostly Cloudy 83 28.3 73 22.8 72 72 NE 16 26 30.06 1018 10 16 0.00 0.00
9:24 pm 21:24 Cloudy with Nearby Thunderstorms 82 27.8 72 22.2 72 72 ENE 10 17 30.06 1018 10 16 0.00 0.00
9:33 pm 21:33 Cloudy 82 27.8 72 22.2 72 72 ENE 9 15 30.06 1018 10 16 0.00 0.00
9:43 pm 21:43 Cloudy 82 27.8 72 22.2 72 72 NE 6 9 30.06 1018 10 16 0.00 0.00
9:53 pm 21:53 Mostly Cloudy 82 27.8 72 22.2 72 72 E 7 11 30.06 1018 10 16 0.00 0.00
10:06 pm 22:06 Mostly Cloudy 81 27.2 71 21.7 72 72 E 7 11 30.06 1018 10 16 0.00 0.00
10:53 pm 22:53 Cloudy 82 27.8 72 22.2 72 72 ESE 12 19 30.07 1018 10 16 0.00 0.00
11:04 pm 23:04 Cloudy 82 27.8 73 22.8 74 74 SE 8 13 30.06 1018 10 16 0.00 0.00
11:53 pm 23:53 Mostly Cloudy 80 26.7 73 22.8 79 79 SSE 6 9 30.05 1018 10 16 0.00 0.00

Powered by AerisWeather